Regional Weather Roundup
Issued by NWS

Home | Current Version | Previous Version | Graphics & Text | Print | Product List | Glossary On
Versions: 1 2 3 4 5 6 7 8 9 10 11 12 13 14 15 16 17 18 19 20 21 22 23 24 25 26 27 28 29 30 31 32 33 34 35 36 37 38 39 40 41 42 43 44 45 46 47 48 49 50
000
ASUS45 KBOI 242210
RWRID
WEATHER ROUNDUP FOR IDAHO
NATIONAL WEATHER SERVICE BOISE ID
300 PM MST SAT JAN 24 2015

NOTE: "FAIR" INDICATES FEW OR NO CLOUDS BELOW 12000 FEET
WITH NO SIGNIFICANT WEATHER AND/OR OBSTRUCTIONS TO VISIBILITY

IDZ012-014-242300-
SOUTHWEST IDAHO


CITY           SKY/WX    TMP DP  RH WIND       PRES   REMARKS
BOISE          CLOUDY    38  32  79 CALM      30.44F
CALDWELL       CLOUDY    37  27  65 CALM      30.48S
MOUNTAIN HOME  CLOUDY    36  30  77 NE6       30.43F WCI  32
$$

IDZ016-017-242300-
SOUTHCENTRAL IDAHO


CITY           SKY/WX    TMP DP  RH WIND       PRES   REMARKS
BURLEY         CLOUDY    39  31  72 CALM      30.40S
JEROME         SUNNY     35  30  82 N8        30.41S WCI  29
TWIN FALLS     PTSUNNY   46  34  62 SW6       30.38F
$$

IDZ019>023-242300-
SOUTHEAST IDAHO


CITY           SKY/WX    TMP DP  RH WIND       PRES   REMARKS
IDAHO FALLS    CLOUDY    28  26  92 CALM      30.42F FOG
POCATELLO      CLOUDY    31  29  92 NE6       30.43R WCI  25
REXBURG        CLOUDY    27  25  92 CALM      30.42S FOG
$$

IDZ006-010-011-018-031-032-242300-
CENTRAL IDAHO MOUNTAINS


CITY           SKY/WX    TMP DP  RH WIND       PRES   REMARKS
MCCALL         CLOUDY    36  33  89 CALM      30.36F
HAILEY         MOSUNNY   30  23  74 SE5       30.40R WCI  25
STANLEY          N/A     36  28  73 CALM      30.37S
SALMON         CLOUDY    30  21  69 CALM      30.38S
CHALLIS        CLOUDY    38  26  62 CALM      30.34F
$$

IDZ002-004-006-007-026-242300-
NORTHERN IDAHO


CITY           SKY/WX    TMP DP  RH WIND       PRES   REMARKS
LEWISTON       CLOUDY    51  43  74 E9        30.31R
LOWELL           N/A     39  38  96 NW3       30.39F
COEUR D`ALENE  CLOUDY    43  43 100 CALM      30.27F VSB 1/2
MULLAN PASS    FOG       37  37 100 VRB3      30.27S VSB 1/4
$$



USA.gov is the U.S. government's official web portal to all federal, state and local government web resources and services.